Flag for Austria

Past Weather in Eisenstadt, Burgenland, Austria — Yesterday and Last 2 Weeks

Now
66 °F

Mild.


Feels Like: 66 °F
Forecast: 71 / 58 °F
Wind: 2 mph from North

Location: Eisenstadt

Current Time: Jul 10, 2020 at 2:29:32 am

Latest Report: Jul 10, 2020 at 1:00 am


Visibility: N/A

Pressure: 29.96 "Hg

Humidity: 80%

Dew Point: 59 °F

Location of EisenstadtLocation

Past Weather in Eisenstadt — Graph

°F

Eisenstadt Temperature Yesterday

Maximum temperature yesterday: 85 °F (at 4:00 pm)
Minimum temperature yesterday: 60 °F (at 6:00 am)
Average temperature yesterday: 73 °F

High & Low Weather Summary for the Past Weeks

 TemperatureHumidityPressure
High88 °F (Jul 1, 4:00 pm)95% (Jun 26, 5:00 am)30.18 "Hg (Jun 26, 5:00 am)
Low52 °F (Jul 8, 6:00 am)33% (Jul 8, 11:00 am)29.75 "Hg (Jul 6, 4:00 pm)
Average71 °F64%29.96 "Hg
* Reported Jun 25 1:00 am — Jul 10 1:00 am, Eisenstadt. Weather by CustomWeather, © 2020

Note: Actual official high and low records may vary slightly from our data, if they occured in-between our weather recording intervals... More about our weather records

Eisenstadt Weather History for the Previous 24 Hours

Scroll right to see more
 ConditionsComfort  
Time TempWeatherWind HumidityBarometerVisibility
1:00 am
Fri, Jul 10
66 °FMild.2 mph80%29.96 "HgN/A
12:00 am67 °FMild.2 mph78%29.97 "HgN/A
11:00 pm
Thu, Jul 9
68 °FClear.3 mph75%29.96 "Hg12 mi
10:00 pm70 °FMild.2 mph70%29.96 "HgN/A
9:00 pm78 °FWarm.2 mph50%29.94 "HgN/A
8:00 pm82 °FScattered clouds.5 mph42%29.94 "Hg12 mi
7:00 pm84 °FPleasantly warm.5 mph39%29.94 "HgN/A
6:00 pm83 °FPleasantly warm.3 mph40%29.95 "HgN/A
5:00 pm84 °FPartly sunny.5 mph38%29.96 "Hg12 mi
4:00 pm85 °FPleasantly warm.3 mph39%29.98 "HgN/A
3:00 pm84 °FPleasantly warm.5 mph38%29.99 "HgN/A
2:00 pm82 °FPassing clouds.6 mph41%30.01 "Hg19 mi
1:00 pm80 °FWarm.3 mph46%30.03 "HgN/A
12:00 pm77 °FMild.5 mph53%30.05 "HgN/A
11:00 am74 °FPartly sunny.3 mph57%30.06 "Hg16 mi
10:00 am71 °FMild.3 mph60%30.07 "HgN/A
9:00 am69 °FMild.2 mph64%30.08 "HgN/A
8:00 am65 °FPartly sunny.1 mph72%30.08 "Hg12 mi
7:00 am61 °FCool.1 mph80%30.08 "HgN/A
6:00 am60 °FCool.2 mph84%30.08 "HgN/A
5:00 am60 °FPassing clouds.1 mph82%30.09 "Hg12 mi
3:00 am63 °FMild.2 mph71%30.06 "HgN/A
2:00 am63 °FPassing clouds.2 mph74%30.07 "Hg12 mi
Weather by CustomWeather, © 2020

See weather overview